Regional Weather Roundup
Issued by NWS Pendleton, OR

Home | Current Version | Previous Version | Text Only | Print | Product List | Glossary On
Versions: 1 2 3 4 5 6 7 8 9 10 11 12 13 14 15 16 17 18 19 20 21 22 23 24 25 26 27 28 29 30 31 32 33 34 35 36 37 38 39 40 41 42 43 44 45 46 47 48 49 50
000
ASUS46 KPDT 271804
RWRPDT
PENDLETON REGIONAL WEATHER ROUNDUP
NATIONAL WEATHER SERVICE PENDLETON OREGON
1000 AM PST TUE JAN 27 2015

NOTE: FAIR INDICATES FEW OR NO CLOUDS BELOW 12,000 FEET WITH NO
SIGNIFICANT WEATHER AND/OR OBSTRUCTIONS TO VISIBILITY.

# INDICATES UNOFFICIAL STATION AND DATA

WAZ520-271910-
EAST SLOPES OF WASHINGTON CASCADES

CITY            SKY/WX      TMP DP  RH  WIND    PRES   REMARKS
#BULLFROG       N/A         31  30  96  S3      N/A
#BULLFROG 2SW   N/A         40  40  100 W3      27.60S
#BUMPING DAM    N/A         31  N/A N/A CALM    N/A
#CLE ELUM HS    N/A         33  31  92  CALM    29.97R
#CLE ELUM LAKE  N/A         43  31  62  NE3     30.01R
#CLIFFDEL 2NW   N/A         32  31  96  CALM    N/A
#EASTON DOT     N/A         39  39  100 N5      N/A
#ELK HTS DOT    N/A         34  34  100 CALM    N/A
#GLENWOOD       N/A         30  29  96  CALM    30.08R
#MANASTASH CYN  N/A         37  30  75  CALM    29.96R
#NELSON         N/A         31  30  96  CALM    30.10R
#NELSON 3SW     N/A         37  35  92  CALM    30.26R
#NILE           N/A         36  32  85  CALM    29.31S
#PEOH POINT     N/A         42  29  60  SW7     N/A
#RONALD 2NW     N/A         38  30  73  NE3     29.86R
#SNOWDEN        N/A         43  40  89  CALM    N/A
#TROUT LAKE 1NE N/A         35  33  92  CALM    30.07R
$$

WAZ521-271910-
SIMCOE HIGHLANDS

CITY            SKY/WX      TMP DP  RH  WIND    PRES   REMARKS
#BICKLETON HS   N/A         49  20  31  CALM    N/A
#SATUS PASS DOT N/A         46  22  38  CALM    N/A
#CENTERVILLE 4W N/A         35  33  92  CALM    29.78R
#CENTERVILLE 1SWN/A         30  28  92  CALM    30.08R
#GOLDENDALE     N/A         30  30  100 CALM    N/A
#GOLDENDALE 1NE N/A         32  32  100 CALM    N/A
#GOLDENDALE 1S  N/A         36  35  96  CALM    30.01R
#GOLDENDALE 5WNWN/A         32  31  96  S3      30.08R
#GOODNOE HILLS  N/A         34  32  92  W5      N/A
#LYLE 6NE       N/A         34  34  100 S1      30.06R
$$

WAZ026-271910-
KITTITAS VALLEY

CITY            SKY/WX      TMP DP  RH  WIND    PRES   REMARKS
ELLENSBURG AP   FOG         33  30  89  MISG    30.02R VSB<1/4
6HR MIN TEMP:   32; 6HR MAX TEMP:   33;

#ELLENSBURG CWU N/A         32  31  96  CALM    30.03R
#ELLENSBURG 3NE N/A         29  28  96  CALM    30.02R
#ELLENSBURG 1E  N/A         33  32  96  CALM    N/A
#KITTITAS 4N    N/A         31  29  92  CALM    28.33R
#KITTITAS 3S    N/A         30  29  96  E1      30.07S
#MANASTASH RDG  N/A         40  40  100 W5      N/A
#ROCKY CYN DOT  N/A         34  34  100 NW6     N/A
#RYEGRASS DOT   N/A         35  34  96  W5      N/A
#THORP 6N       N/A         35  33  92  NW2     30.06R
$$

WAZ027-271910-
YAKIMA VALLEY

CITY            SKY/WX      TMP DP  RH  WIND    PRES   REMARKS
YAKIMA AIRPORT  FOG         34  32  92  W3      30.06R VSB 1/4
6HR MIN TEMP:   32; 6HR MAX TEMP:   34;

YAKIMA-VAGABOND N/A         32  32  100 E2      30.04R FOG
#DONALD 2NE     N/A         36  36  100 CALM    28.91R
#GRANDVIEW      N/A         34  33  96  S1      30.11R
#MABTON         N/A         35  35  100 CALM    30.06R
#MOXEE 2E       N/A         35  35  100 S3      29.98S
#NACHES 2SW     N/A         30  29  96  CALM    29.99S
#PARKER DOT     N/A         34  34  100 CALM    N/A
#SELAH 8E       N/A         32  32  100 S3      N/A
#TERRACE HTS    N/A         33  32  96  CALM    30.06R
#TOPPENISH      N/A         35  34  96  CALM    30.01R
#I82 S UMTANUM RN/A         30  29  96  W1      N/A
#UNION GAP DOT  N/A         33  33  100 CALM    N/A
#WAPATO 4NE     N/A         36  36  100 CALM    28.91R
#WEST VALLEY    N/A         32  31  96  CALM    30.08R
#W YAKIMA       N/A         32  31  96  CALM    30.11R
#WHITE SWAN 5E  N/A         34  33  96  CALM    30.10R
#WILEY CITY 3W  N/A         31  28  88  CALM    30.05R
#ZILLAH DOT     N/A         35  35  100 CALM    N/A
$$

WAZ028-271910-
LOWER COLUMBIA BASIN...WASHINGTON

CITY            SKY/WX      TMP DP  RH  WIND    PRES   REMARKS
PASCO           CLOUDY      37  36  96  SE7     30.09R FOG
6HR MIN TEMP:   36; 6HR MAX TEMP:   37;

PROSSER AWOS    N/A         36  36  100 W3      30.11R
RICHLAND AWOS   CLOUDY      37  37  100 CALM    30.08R FOG
#BASIN CITY 5SW N/A         37  36  96  CALM    30.07R
#BENTON CITY    N/A         35  34  96  CALM    29.99
#CONNELL 5N     N/A         33  33  100 CALM    30.09R
#CONNELL 5NW    N/A         33  33  100 CALM    30.05S
#ELTOPIA 6NW    N/A         35  35  100 CALM    29.02S
#KAHLOTUS       N/A         31  30  96  CALM    30.09S
#KENNEWICK      N/A         40  40  100 W3      27.60S
#KENNEWICK 3S   N/A         35  34  96  CALM    30.09S
#PASCO-BROADMOORN/A         37  34  89  CALM    30.00S
#PATERSON       N/A         35  34  96  CALM    30.08R
#PROSSER DOT    N/A         36  35  96  S3      N/A
#PROSSER        N/A         34  33  96  CALM    30.08S
#SAGEMOOR 2W    N/A         36  35  96  CALM    29.93S
#TOUCHET 2S     N/A         34  33  96  CALM    30.09S
#WEST PASCO     N/A         38  36  92  E1      30.03R
$$

WAZ029-271910-
FOOTHILLS OF THE BLUES...WASHINGTON

CITY            SKY/WX      TMP DP  RH  WIND    PRES   REMARKS
WALLA WALLA AP  CLOUDY      35  33  92  CALM    30.04S FOG
#DAYTON SCHOOL  N/A         33  28  82  CALM    30.03S
#LOWDEN 2SE     N/A         35  34  96  CALM    30.04R
#PLEASANT VIEW 1N/A         31  30  96  CALM    30.13R
#PRESCOTT       N/A         33  32  96  CALM    30.08S
#SUDBURY        N/A         38  N/A N/A CALM    N/A
#WHITMAN COLLEGEN/A         34  33  96  CALM    30.14R
#WAITSBURG 5S   N/A         32  32  100 CALM    30.17S
#WAITSBURG 8N   N/A         37  30  75  S3      29.85F
#WALLA WALLA 5E N/A         34  34  100 NE1     N/A
#WALLA WALLA U  N/A         34  33  96  CALM    30.09S
#WHITMAN MISSIONN/A         35  34  96  CALM    30.11R
$$

WAZ030-271910-
BLUE MOUNTAINS...WASHINGTON

CITY            SKY/WX      TMP DP  RH  WIND    PRES   REMARKS
#SKI BLUEWOOD   N/A         41  35  79  CALM    30.02R
$$

ORZ009-041-WAZ024-271910-
COLUMBIA RIVER GORGE

CITY            SKY/WX      TMP DP  RH  WIND    PRES   REMARKS
HOOD RIVER AP   CLOUDY      37  37  100 CALM    30.09R FOG
THE DALLES AP   CLOUDY      40  37  89  CALM    30.10R
6HR MIN TEMP:   39; 6HR MAX TEMP:   40;

#ARLINGTON AIRPON/A         35  35  100 SW1     30.02S
#ARLINGTON HS   N/A         38  36  92  CALM    30.00R
#CELILO DOT     N/A         40  35  82  CALM    N/A
#LYLE           N/A         40  39  96  NE1     30.11R
#MARYHILL       N/A         36  N/A N/A CALM    N/A
#MOSIER 1S      N/A         38  37  96  CALM    30.09S
#MURDOCK        N/A         40  40  100 W3      30.12R
#RUFUS DOT      N/A         39  35  85  CALM    N/A

$$

ORZ510-271910-
NORTH CENTRAL OREGON

CITY            SKY/WX      TMP DP  RH  WIND    PRES   REMARKS
#CHENOWITH 1W   N/A         37  37  100 W9      N/A
#COW CYN RST AREN/A         43  35  73  W3      N/A
#DUFUR 9E       N/A         47  38  71  W1      30.08R
#GRASS VALLEY 1SN/A         44  41  89  NW2     30.07S
#KENT DOT       N/A         43  33  67  SE3     N/A
#MAUPIN SCHOOL  N/A         35  33  92  CALM    30.08S
#MORO SCHOOL    N/A         45  45  100 CALM    30.04R
#SHANIKO 5WSW   N/A         43  29  57  SE5     N/A
#SHANIKO 4NW    N/A         48  33  56  S5      30.02R
#TYGH VALLEY 2NEN/A         33  32  96  CALM    30.10R
#WAPANITIA AIRPON/A         33  32  96  CALM    30.11R
#WASCO DOT      N/A         35  33  92  CALM    N/A
#WASCO 5NE      N/A         33  32  96  CALM    30.09R
$$

ORZ511-271910-
CENTRAL OREGON

CITY            SKY/WX      TMP DP  RH  WIND    PRES   REMARKS
BEND AIRPORT    CLOUDY      39  32  76  SE3     30.07R
MADRAS AIRPORT  N/A         41  36  82  MISG    30.06S
PRINEVILLE AP   CLOUDY      43  37  79  CALM    30.06R
REDMOND AIRPORT CLOUDY      42  35  76  CALM    30.05R
6HR MIN TEMP:   28; 6HR MAX TEMP:   42;

#BEND 1SW       N/A         40  32  73  SW3     N/A
#BEND-AWBREY    N/A         47  32  56  S3      30.01R
#BEND-KIM LN    N/A         41  32  70  SW9     30.01S
#CROOKED RVR RANN/A         41  36  82  CALM    30.03R
#CULVER         N/A         41  36  82  CALM    30.00S
#LAKE BILLY CHINN/A         38  27  64  CALM    30.16R
#POWELL BUTTE 3EN/A         42  36  79  NW1     N/A
#POWELL BUTTE   N/A         46  38  73  CALM    29.68R
#PRINEVILLE 3N  N/A         38  35  89  N2      30.04R
#WARM SPRINGS   N/A         34  33  96  CALM    30.04S

$$


ORZ509-271910-
EAST SLOPES OF OREGON CASCADES

CITY            SKY/WX      TMP DP  RH  WIND    PRES   REMARKS
#BLUE BOX PASS  N/A         47  -5  11  N1      N/A
#CAMP SHERMAN   N/A         31  29  92  CALM    30.16R
#LA PINE 4NW    N/A         31  28  88  CALM    30.16S
#LAVA BUTTE DOT N/A         35  30  82  CALM    N/A
#MT BACHELOR-MIDN/A         37  11  34  E16     N/A    WCI 28
#SISTERS AIRPOR N/A         34  34  100 CALM    30.17S
#SISTERS 3N     N/A         36  30  79  CALM    30.07R
#SUNRIVER       N/A         35  30  82  S2      30.01R
#TUMALO 3W      N/A         47  33  58  CALM    29.88R
#WANOGA BUTTE D N/A         46  11  24  SW2     N/A

$$

ORZ044-271910-
LOWER COLUMBIA BASIN...OREGON

CITY            SKY/WX      TMP DP  RH  WIND    PRES   REMARKS
HERMISTON       FOG         36  35  96  N3      30.06S VSB 1/4
6HR MIN TEMP:   35; 6HR MAX TEMP:   36;

#BOARDMAN SCHOOLN/A         37  37  100 CALM    30.10R
#BOARDMAN 8SW   N/A         36  35  96  CALM    30.09R
#ECHO 8SW       N/A         36  36  100 CALM    30.03S
#IONE SCHOOL    N/A         34  25  69  CALM    30.03R
#IRRIGON 4NW    N/A         37  37  100 E2      N/A
#UMATILLA SCHOOLN/A         33  33  100 CALM    30.14F
#UMATILLA       N/A         36  33  89  CALM    30.06R
$$

ORZ507-271910-
NORTHERN FOOTHILLS OF THE BLUES

CITY            SKY/WX      TMP DP  RH  WIND    PRES   REMARKS
PENDLETON AIRPT PTCLDY      32  32  100 CALM    30.02R FOG
6HR MIN TEMP:   30; 6HR MAX TEMP:   32;

#ADAMS 3WNW     N/A         31  30  96  CALM    30.08F
#ATHENA         N/A         31  30  96  CALM    30.10S
#CAYUSE         N/A         32  31  96  CALM    30.07F
#HELIX SCHOOL   N/A         34  32  92  CALM    30.06S
#HELIX 3N       N/A         44  38  79  S5      29.98R
#HELIX 6SW      N/A         35  34  96  CALM    30.02
#HOLDMAN 5SE    N/A         35  34  96  CALM    30.03S
#HOLDMAN 6E     N/A         34  33  96  CALM    29.89S
#M-F FERNDALE   N/A         34  33  96  CALM    30.04S
#M-FREEWATER 5SEN/A         32  31  96  CALM    30.02S
#PENDLETON DNTN N/A         33  31  92  CALM    28.85S
#PDT AQUATIC CTRN/A         33  32  96  CALM    30.04S
#PENDLETON 5NE  N/A         31  30  96  CALM    29.99R
#PDT SUNRIDGE   N/A         32  31  96  CALM    30.04S
#PENDLETON 7NW  N/A         32  30  92  CALM    26.64S
#TUTUILLA       N/A         34  33  96  SE1     30.06S
#UMAPINE 2E     N/A         34  33  96  CALM    30.03S
#WESTON SCHOOL  N/A         38  33  82  CALM    30.00S

$$

ORZ508-271910-
SOUTHERN FOOTHILLS OF THE BLUES

CITY            SKY/WX      TMP DP  RH  WIND    PRES   REMARKS
LEXINGTON       MOCLDY      37  37  100 CALM    30.04R
#AJAX           N/A         44  34  68  S2      29.96R
#CONDON SCHOOL  N/A         42  38  86  CALM    29.98S
#CONDON 5W      N/A         47  35  63  SW8     29.99R
#HEPPNER EOC    N/A         50  38  63  SE6     29.99F
#HEPPNER 4NE    N/A         53  38  57  CALM    30.00R
#LEXINGTON 2SE  N/A         37  35  92  CALM    29.98S
#MIKKALO        N/A         33  33  100 NE1     30.03R
#OLEX 4N        N/A         34  33  96  CALM    30.05R
#RUGGS 5NE      N/A         51  34  52  E2      30.17S
#RUGGS 2SW      N/A         51  36  56  SW9     29.99S

$$

ORZ502-503-271910-
BLUE MOUNTAINS

CITY            SKY/WX      TMP DP  RH  WIND    PRES   REMARKS
MEACHAM         PTCLDY      45  35  68  CALM    30.03S
6HR MIN TEMP:   29; 6HR MAX TEMP:   45;

#BATTLE MTN DOT N/A         37  36  96  SE3     N/A
#HARDMAN 10S    N/A         44  35  70  S3      30.14R
#HEPPNER 15SE   N/A         49  36  61  CALM    29.92S
#LADD CREEK ODOTN/A         40  30  67  S13     N/A    WCI 32
#LONG CREEK HS  N/A         37  36  96  CALM    30.00R
#N POWDER DOT   N/A         31  30  96  CALM    N/A
#PIKES PEAK     N/A         54  27  35  S9      27.99S
#TOLLGATE       N/A         43  34  70  SW1     29.97R
#TROY SCHOOL    N/A         37  35  92  S1      29.98F
#UKIAH          N/A         30  28  92  CALM    30.16S
#WESTON 4E      N/A         49  36  61  E9      29.92S
$$

ORZ505-271910-
JOHN DAY BASIN

CITY            SKY/WX      TMP DP  RH  WIND    PRES   REMARKS
JOHN DAY        CLOUDY      40  34  79  W6      30.07R
#JOHN DAY KJDY  N/A         37  30  75  CALM    30.20R
#DAYVILLE SCHOOLN/A         34  31  89  CALM    30.05R
#MITCHELL       N/A         48  40  74  E1      30.17S
#MONUMENT HS    N/A         31  29  92  CALM    30.08S
#MT. VERNON 5SE N/A         40  33  76  CALM    30.01R
#WINLOCK        N/A         52  37  56  CALM    30.13R
$$

ORZ506-271910-
OCHOCO AND JOHN DAY HIGHLANDS

CITY            SKY/WX      TMP DP  RH  WIND    PRES   REMARKS
#BUCK CREEK DOT N/A         33  33  100 SE6     N/A
#HORSE RIDGE DO N/A         37  33  85  SE3     N/A
#KEYES SMT DOT  N/A         45  34  65  CALM    N/A
#PAULINA SCHOOL N/A         35  33  92  NE1     30.06R
#PINE MTN OBS   N/A         45  15  29  NW5     N/A
#PRAIRIE CITY   N/A         34  31  89  CALM    30.19F
#SENECA         N/A         30  N/A N/A CALM    N/A
#SENECA 9NW     N/A         28  27  96  CALM    30.12R
$$

ORZ049-271910-
GRANDE RONDE VALLEY

CITY            SKY/WX      TMP DP  RH  WIND    PRES   REMARKS
LA GRANDE       MOCLDY      48  32  54  SE7     30.05S
#COVE           N/A         41  35  79  CALM    30.03S
#COVE SCHOOL    N/A         42  37  82  CALM    30.04R
#COVE 6NW       N/A         38  34  85  CALM    30.14S
#ELGIN 3N       N/A         34  30  85  CALM    29.88F
#ELGIN 1E       N/A         30  26  85  CALM    N/A
#IMBLER SCHOOL  N/A         36  33  89  N2      30.03S
#ISLAND CITY 4N N/A         42  42  100 CALM    30.12R
#LADD CYN DOT   N/A         47  34  60  S18G26  N/A    WCI 40
#UNION 1S       N/A         43  36  76  E12     30.01S WCI 37
$$

ORZ050-271910-
WALLOWA COUNTY

CITY            SKY/WX      TMP DP  RH  WIND    PRES   REMARKS
#ENTERPRISE AP  N/A         31  28  88  CALM    29.99F
#ENTERPRISE HS  N/A         31  29  92  CALM    30.07S
#IMNAHA SCHOOL  N/A         41  37  86  SW2     30.06S
#IMNAHA 10S     N/A         37  32  82  SW2     30.04
#JOSEPH 3N      N/A         32  32  100 CALM    30.08F
#JOSEPH 3W      N/A         39  32  76  CALM    29.88R
#LOSTINE        N/A         26  25  96  CALM    29.98F
#MT HOWARD 8000 N/A         43  24  47  CALM    30.09S
#PROMISE 1S     N/A         40  35  82  E1      30.19F
#SHEEP RDG 7000 N/A         45  21  38  CALM    29.86S
#WALLOWA SCHOOL N/A         27  26  96  CALM    31.17S



$$



USA.gov is the U.S. government's official web portal to all federal, state and local government web resources and services.